Location: Kuffner-Sternwarte
(48.2130°N, 16.2960°E)
Time: 15:53:35
(UTC+02:00)

COROT - Pass Details

Date: 15 May 2026
Orbit: 594 x 855 km, 90.1° (Epoch: 21 May)

Event Time Altitude Azimuth Distance (km) Brightness Sun altitude
Rises 00:04:37 0° 358° (N) 3,347 10.7 -22.2°
Reaches altitude 10° 00:07:05 10° 356° (N) 2,378 9.7 -22.3°
Maximum altitude 00:12:18 60° 277° (W) 866 6.3 -22.4°
Enters shadow 00:13:42 43° 221° (SW) 1,039 6.4 -22.5°
